TimeCDT,TemperatureF,Dew PointF,Humidity,Sea Level PressureIn,VisibilityMPH,Wind Direction,Wind SpeedMPH,Gust SpeedMPH,PrecipitationIn,Events,Conditions,WindDirDegrees,DateUTC
12:15 AM,59.0,51.8,77,30.10,10.0,NNE,6.9,-,N/A,,Overcast,30,2013-07-03 05:15:00
12:35 AM,57.2,51.8,82,30.09,10.0,NE,3.5,-,N/A,,Overcast,50,2013-07-03 05:35:00
12:55 AM,57.2,53.6,88,30.09,10.0,NNE,4.6,-,N/A,,Overcast,30,2013-07-03 05:55:00
1:15 AM,57.2,53.6,88,30.09,10.0,NE,6.9,-,N/A,,Overcast,50,2013-07-03 06:15:00
1:35 AM,59.0,53.6,82,30.09,10.0,NE,5.8,-,N/A,,Overcast,40,2013-07-03 06:35:00
1:55 AM,59.0,55.4,88,30.09,10.0,NE,4.6,-,N/A,,Overcast,40,2013-07-03 06:55:00
2:15 AM,59.0,55.4,88,30.08,10.0,NE,4.6,-,N/A,,Overcast,50,2013-07-03 07:15:00
2:35 AM,59.0,55.4,88,30.08,10.0,Calm,Calm,-,N/A,,Overcast,0,2013-07-03 07:35:00
2:55 AM,59.0,55.4,88,30.08,10.0,NE,4.6,-,N/A,,Overcast,50,2013-07-03 07:55:00
3:15 AM,59.0,55.4,88,30.07,10.0,NNE,4.6,-,N/A,,Overcast,30,2013-07-03 08:15:00
3:35 AM,57.2,53.6,88,30.06,10.0,NNE,5.8,-,N/A,,Overcast,20,2013-07-03 08:35:00
3:55 AM,57.2,53.6,88,30.06,10.0,North,3.5,-,N/A,,Overcast,10,2013-07-03 08:55:00
4:15 AM,57.2,53.6,88,30.06,10.0,North,4.6,-,N/A,,Overcast,360,2013-07-03 09:15:00
4:35 AM,57.2,53.6,88,30.06,10.0,Calm,Calm,-,N/A,,Overcast,0,2013-07-03 09:35:00
4:55 AM,57.2,53.6,88,30.06,10.0,NNE,4.6,-,N/A,,Overcast,20,2013-07-03 09:55:00
5:15 AM,57.2,53.6,88,30.06,10.0,NNE,5.8,-,N/A,,Overcast,30,2013-07-03 10:15:00
5:35 AM,59.0,53.6,82,30.07,10.0,North,4.6,-,N/A,,Overcast,10,2013-07-03 10:35:00
5:45 AM,59.0,55.4,88,30.07,10.0,NNE,4.6,-,N/A,,Overcast,30,2013-07-03 10:45:00
6:45 AM,59.0,55.4,88,30.08,10.0,NNE,5.8,-,N/A,,Overcast,30,2013-07-03 11:45:00
7:45 AM,60.8,55.4,82,30.09,10.0,NNE,4.6,-,N/A,,Overcast,30,2013-07-03 12:45:00
8:45 AM,60.8,55.4,82,30.10,10.0,NE,4.6,-,N/A,,Overcast,40,2013-07-03 13:45:00
9:45 AM,62.6,55.4,77,30.10,10.0,NE,5.8,-,N/A,,Mostly Cloudy,40,2013-07-03 14:45:00
10:45 AM,62.6,55.4,77,30.09,10.0,ENE,5.8,-,N/A,,Overcast,60,2013-07-03 15:45:00
11:45 AM,60.8,57.2,88,30.10,7.0,ENE,5.8,-,N/A,Rain,Light Rain,60,2013-07-03 16:45:00
12:45 PM,64.4,60.8,88,30.08,10.0,NNE,5.8,-,N/A,,Overcast,20,2013-07-03 17:45:00
1:45 PM,64.4,60.8,88,30.08,10.0,NE,11.5,-,N/A,,Overcast,50,2013-07-03 18:45:00
2:45 PM,64.4,60.8,88,30.07,10.0,ENE,4.6,-,N/A,,Overcast,60,2013-07-03 19:45:00
3:45 PM,62.6,60.8,94,30.07,10.0,NE,4.6,-,N/A,,Overcast,50,2013-07-03 20:45:00
4:45 PM,62.6,60.8,94,30.06,10.0,East,4.6,-,N/A,,Overcast,90,2013-07-03 21:45:00
5:20 PM,62.6,60.8,94,30.05,10.0,ENE,3.5,-,N/A,,Overcast,60,2013-07-03 22:20:00
5:45 PM,62.6,60.8,94,30.05,10.0,Calm,Calm,-,N/A,,Overcast,0,2013-07-03 22:45:00
7:45 PM,64.4,60.8,88,30.05,7.0,Calm,Calm,-,N/A,,Overcast,0,2013-07-04 00:45:00
8:45 PM,64.4,60.8,88,30.06,7.0,Calm,Calm,-,N/A,,Overcast,0,2013-07-04 01:45:00
9:15 PM,62.6,60.8,94,30.07,7.0,Calm,Calm,-,N/A,,Overcast,0,2013-07-04 02:15:00
9:35 PM,62.6,60.8,94,30.07,5.0,Calm,Calm,-,N/A,,Overcast,0,2013-07-04 02:35:00
9:55 PM,62.6,60.8,94,30.07,5.0,SSE,3.5,-,N/A,,Overcast,160,2013-07-04 02:55:00
10:15 PM,62.6,60.8,94,30.08,7.0,ESE,4.6,-,N/A,,Overcast,120,2013-07-04 03:15:00
10:35 PM,60.8,59.0,94,30.08,5.0,ESE,4.6,-,N/A,,Overcast,120,2013-07-04 03:35:00
10:55 PM,60.8,59.0,94,30.08,5.0,SE,3.5,-,N/A,,Overcast,130,2013-07-04 03:55:00
11:15 PM,60.8,59.0,94,30.08,5.0,Calm,Calm,-,N/A,,Overcast,0,2013-07-04 04:15:00
11:35 PM,60.8,59.0,94,30.08,4.0,SSE,3.5,-,N/A,,Overcast,160,2013-07-04 04:35:00
11:55 PM,60.8,59.0,94,30.08,3.0,SE,3.5,-,N/A,,Mostly Cloudy,140,2013-07-04 04:55:00